NOAA 16 DEB, 41494

Orbit data source: Space-Track

NOAA 16 DEB, 41494 is space debris in SSO originally from a launch on Thu, 21 Sep 2000 UTC launched from the Air Force Western Test Range (AFWTR). Debris objects in space refer to the collection of defunct objects orbiting the Earth. Examples of debris include non-operational satellites, rocket bodies, and fragments generated from explosions, collisions, or faulty payload assembly.

Loading next visibility...
Identifier
41494, 2000-055LS
Orbit
SSO
Country
Flag of USUS
Related business
Manufacturer
Unknown
Mission
Spacecraft
Bus & Motor
Unknown
Mass
Unknown
Launch date (UTC)
2000-09-21 (25 years ago)
Launch vehicle
Unknown
Launch site
Air Force Western Test Range (AFWTR)
Object type
Payload
Rocket body
Debris
Shape & HBR
Unknown shape, 0.1 m
Radar Cross Section
Small (<0.1 m²)

Expand to show TLE details & history
Last TLE update: 2 days ago

TLE from 2 days ago
0 NOAA 16 DEB
1 41494U 00055LS  25348.47933863  .00014671  00000-0  32061-2 0  9990
2 41494  98.9445 175.2541 0024239 264.0691  95.7743 14.57707760507311
Epoch: 2025-12-14T11:30Z
TLE epoch observation values (Epoch: 2025-12-14T11:30:14.857Z)
Latitude
Longitude
-80.69947°
Altitude
705.311 km
Speed
7.502 km/s
True Right ascension
11h 41m 00s
True Declination
0° 00' 00"
Sunlit
Object was in daylight at epoch
Visualization orbit readout
Latitude
Unknown
Longitude
Unknown
Altitude
Unknown
Speed
Unknown
Apparent Right ascension
Unknown
Apparent Declination
Unknown
Sunlit
N/A
Visualization observer readout
Local Sidereal Time
16:03:54
Azimuth
Unknown
Elevation
Unknown
Doppler factor
Unknown
Orbital elements
Apogee altitude
714.856 km
Perigee altitude
680.554 km
Semi-major axis
7,075.842 km
Eccentricity
0.00242
Inclination
98.9445°
RAAN
175.2541°
Arg. of periapsis
264.0691°
True anomaly
96.05056°
Mean anomaly
95.7743°
Eccentric anomaly
95.91244°
Mean motion
3.6465 °/min
Orbital period
98.72 mins
BSTAR
0.0032061
Loading maneuver chart data...
Computing Atmospheric mass density...
Loading historical data...
Loading historical data...
Loading historical data...
Loading historical data...
Loading historical data...
Loading historical data...
Loading historical data...

Documentation

Showing up to 5 results
|